FW5443 Reading MA US current weather conditions

sailwx.info

Air temperature 4.4° C
Dewpoint 3.4° C

Last reported at 2019-Dec-09 12:01 UTC.
Time now 2019-Dec-09 12:22 UTC

Location: N 42°31' W 071°07'.
View on Google Maps.

See reports from other nearby stations

  
Tides and Currents Weather Stations Pressure Air Temp Water Temp Dewpoint Dewpoint Depression Visibility Wind Speed Wind Dir Waves Ship Positions
date/time (UTC)wind fromknots sea level pressurealtimeterstation pressurevisibilityair tempwater tempwave heightnotes
2019-Dec-09 12:01 4.4
2019-Dec-09 11:55 202 4.4
2019-Dec-09 11:50 4.4
2019-Dec-09 11:46 204 0 gusting 2 4.4
2019-Dec-09 11:40 149 4.4
2019-Dec-09 11:35 4.4
2019-Dec-09 11:31 4.4
2019-Dec-09 11:25 4.4
2019-Dec-09 11:20 4.4
2019-Dec-09 11:16 192 4.4
2019-Dec-09 11:10 4.4
2019-Dec-09 11:05 4.4
2019-Dec-09 11:00 190 0 gusting 2 4.4
2019-Dec-09 10:55 4.4
2019-Dec-09 10:50 209 4.4
2019-Dec-09 10:46 4.4
2019-Dec-09 10:40 188 0 gusting 4 4.4
2019-Dec-09 10:35 182 0 gusting 4 4.4
2019-Dec-09 10:30 215 1 gusting 5 4.4
2019-Dec-09 10:25 247 1 gusting 6 3.9
2019-Dec-09 10:20 229 2 gusting 6 3.9
2019-Dec-09 10:16 148 1 gusting 6 3.9
2019-Dec-09 10:10 194 2 gusting 6 3.9
2019-Dec-09 10:05 320 1 gusting 6 3.9
2019-Dec-09 10:01 173 1 gusting 6 3.9
2019-Dec-09 09:55 223 0 gusting 3 3.9
2019-Dec-09 09:50 3.9
2019-Dec-09 09:46 190 0 gusting 6 3.9
2019-Dec-09 09:40 234 1 gusting 6 3.9
2019-Dec-09 09:35 202 1 gusting 6 3.9
2019-Dec-09 09:30 267 0 gusting 6 3.9
2019-Dec-09 09:25 257 1 gusting 7 3.9
2019-Dec-09 09:20 238 2 gusting 7 3.9
2019-Dec-09 09:16 236 2 gusting 6 3.9
2019-Dec-09 09:10 223 0 gusting 6 3.3
2019-Dec-09 09:05 220 1 gusting 6 3.3
2019-Dec-09 09:01 200 1 gusting 6 3.3
2019-Dec-09 08:55 187 1 gusting 6 3.3
2019-Dec-09 08:50 224 0 gusting 5 3.3
2019-Dec-09 08:46 271 1 gusting 5 3.3
2019-Dec-09 08:40 206 1 gusting 5 3.3
2019-Dec-09 08:35 198 1 gusting 5 3.3
2019-Dec-09 08:30 227 0 gusting 3 3.3
2019-Dec-09 08:25 244 0 gusting 4 3.3
2019-Dec-09 08:20 224 0 gusting 5 3.3
2019-Dec-09 08:16 222 1 gusting 5 3.3
2019-Dec-09 08:10 244 1 gusting 10 3.3
2019-Dec-09 08:05 146 1 gusting 10 3.3
2019-Dec-09 08:01 246 0 gusting 6 3.3
2019-Dec-09 07:55 111 1 gusting 6 3.3
2019-Dec-09 07:50 226 1 gusting 4 3.3
2019-Dec-09 07:45 190 0 gusting 7 3.3
2019-Dec-09 07:40 3.3
2019-Dec-09 07:35 198 1 gusting 6 3.3
2019-Dec-09 07:30 190 1 gusting 8 3.3
2019-Dec-09 07:25 182 2 gusting 8 3.3
2019-Dec-09 07:20 197 1 gusting 9 3.3
2019-Dec-09 07:16 183 2 gusting 9 3.3
2019-Dec-09 07:10 194 1 gusting 9 3.3
2019-Dec-09 07:05 273 2 gusting 6 3.3
2019-Dec-09 07:01 199 1 gusting 8 3.3
2019-Dec-09 06:55 296 1 gusting 8 3.3
2019-Dec-09 06:50 225 2 gusting 7 3.3
2019-Dec-09 06:45 167 1 gusting 8 3.3
2019-Dec-09 06:40 244 3 gusting 8 3.3
2019-Dec-09 06:35 225 1 gusting 8 3.3
2019-Dec-09 06:30 227 0 gusting 8 3.3
2019-Dec-09 06:25 246 2 gusting 8 3.3
2019-Dec-09 06:20 197 2 gusting 7 3.3
2019-Dec-09 06:16 176 1 gusting 9 3.3
2019-Dec-09 06:10 190 2 gusting 9 2.8
2019-Dec-09 06:05 192 2 gusting 9 2.8
2019-Dec-09 06:01 210 1 gusting 8 2.8
2019-Dec-09 05:55 250 1 gusting 8 2.8
2019-Dec-09 05:50 250 2 gusting 9 2.8
2019-Dec-09 05:46 234 4 gusting 9 2.2
2019-Dec-09 05:40 217 3 gusting 8 2.2
2019-Dec-09 05:35 2.2
2019-Dec-09 05:31 272 0 gusting 5 2.2
2019-Dec-09 05:25 226 1 gusting 8 2.2
2019-Dec-09 05:20 230 2 gusting 8 2.2
2019-Dec-09 05:16 202 2 gusting 7 1.7
2019-Dec-09 05:10 172 0 gusting 6 1.7
2019-Dec-09 05:05 246 0 gusting 4 1.7
2019-Dec-09 05:00 264 1 gusting 5 1.7
2019-Dec-09 04:55 209 0 gusting 5 1.7
2019-Dec-09 04:50 218 1 gusting 5 1.7
2019-Dec-09 04:45 228 0 gusting 5 1.1
2019-Dec-09 04:40 218 1 gusting 5 1.1
2019-Dec-09 04:35 251 0 gusting 5 1.1
2019-Dec-09 04:30 242 0 gusting 5 1.1
2019-Dec-09 04:25 265 0 gusting 7 1.1
2019-Dec-09 04:20 246 1 gusting 7 1.1
2019-Dec-09 04:15 201 1 gusting 7 1.1
2019-Dec-09 04:10 178 1 gusting 7 0.6
2019-Dec-09 04:05 231 1 gusting 5 0.6
2019-Dec-09 04:00 205 0 gusting 5 0.6
2019-Dec-09 03:55 -0.0
2019-Dec-09 03:50 -0.0
2019-Dec-09 03:46 179 -0.0
2019-Dec-09 03:40 179 -0.0
2019-Dec-09 03:35 175 -0.0
2019-Dec-09 03:31 -0.0
2019-Dec-09 03:25 -0.0
2019-Dec-09 03:20 240 0 gusting 4 -0.0
2019-Dec-09 03:15 163 0 gusting 4 -0.0
2019-Dec-09 03:10 146 -0.0
2019-Dec-09 03:05 214 1 gusting 6 -0.0
2019-Dec-09 03:01 227 1 gusting 6 -0.6
2019-Dec-09 02:55 200 0 gusting 6 -0.6
2019-Dec-09 02:50 153 -0.6
2019-Dec-09 02:46 186 0 gusting 3 -0.6
2019-Dec-09 02:40 217 -0.6
2019-Dec-09 02:35 210 0 gusting 4 -0.6
2019-Dec-09 02:30 200 0 gusting 5 -0.6
2019-Dec-09 02:25 -0.6
2019-Dec-09 02:20 238 -0.6
2019-Dec-09 02:16 194 0 gusting 5 -1.1
2019-Dec-09 02:10 179 0 gusting 5 -1.1
2019-Dec-09 02:05 194 0 gusting 3 -1.1
2019-Dec-09 02:01 186 0 gusting 3 -1.1
2019-Dec-09 01:55 159 0 gusting 3 -1.1
2019-Dec-09 01:50 155 -1.1
2019-Dec-09 01:46 -1.1
2019-Dec-09 01:40 -1.1
2019-Dec-09 01:35 192 -1.1
2019-Dec-09 01:30 196 -1.1
2019-Dec-09 01:25 -1.1
2019-Dec-09 01:20 219 -1.1
2019-Dec-09 01:15 205 -1.1
2019-Dec-09 01:10 -1.1
2019-Dec-09 01:05 194 0 gusting 5 -1.1
2019-Dec-09 01:00 -1.1
2019-Dec-09 00:55 180 -1.1
2019-Dec-09 00:50 202 0 gusting 4 -1.1
2019-Dec-09 00:45 167 -1.1
2019-Dec-09 00:40 175 -1.1
2019-Dec-09 00:35 -1.1
2019-Dec-09 00:30 -1.1
2019-Dec-09 00:25 142 -1.1
2019-Dec-09 00:20 144 0 gusting 2 -1.1
2019-Dec-09 00:15 192 -0.6
2019-Dec-09 00:10 192 0 gusting 4 -0.6
2019-Dec-09 00:05 205 0 gusting 2 -0.6
2019-Dec-09 00:00 182 0 gusting 2 -0.6
2019-Dec-08 23:55 232 -0.6
2019-Dec-08 23:50 173 0 gusting 6 -0.6
2019-Dec-08 23:47 209 1 gusting 6 -0.6
2019-Dec-08 23:40 202 0 gusting 3 -0.6
2019-Dec-08 23:35 205 0 gusting 3 -0.6
2019-Dec-08 23:31 164 0 gusting 4 -0.6
2019-Dec-08 23:25 132 1 gusting 4 -0.6
2019-Dec-08 23:20 -0.6
2019-Dec-08 23:16 236 1 gusting 6 -0.6
2019-Dec-08 23:10 122 1 gusting 6 -0.6
2019-Dec-08 23:05 220 0 gusting 3 -0.6
2019-Dec-08 23:00 186 0 gusting 4 -0.6
2019-Dec-08 22:55 173 1 gusting 4 -0.6
2019-Dec-08 22:50 221 0 gusting 3 -0.6
2019-Dec-08 22:46 169 0 gusting 4 -0.6
2019-Dec-08 22:40 266 0 gusting 4 -0.6
2019-Dec-08 22:35 -0.6
2019-Dec-08 22:30 188 0 gusting 3 -0.6
2019-Dec-08 22:25 180 0 gusting 2 -0.6
2019-Dec-08 22:20 -0.6
2019-Dec-08 22:15 182 0 gusting 3 -0.6
2019-Dec-08 22:10 169 0 gusting 3 -0.6
2019-Dec-08 22:05 -0.6
2019-Dec-08 22:00 190 -0.6
2019-Dec-08 21:55 -0.6
2019-Dec-08 21:50 191 0 gusting 4 -0.6
2019-Dec-08 21:46 -0.6
2019-Dec-08 21:40 203 0 gusting 2 -0.6
2019-Dec-08 21:35 -0.6
2019-Dec-08 21:30 -0.6
2019-Dec-08 21:25 165 -0.6
2019-Dec-08 21:20 -0.6
2019-Dec-08 21:15 -0.6
2019-Dec-08 21:10 246 -0.0
2019-Dec-08 21:05 200 -0.0
2019-Dec-08 21:00 179 -0.0
2019-Dec-08 20:55 175 0 gusting 4 -0.0
2019-Dec-08 20:50 -0.0
2019-Dec-08 20:46 190 1 gusting 6 -0.0
2019-Dec-08 20:40 179 0 gusting 4 -0.0
2019-Dec-08 20:35 -0.0
2019-Dec-08 20:31 162 1 gusting 6 -0.0
2019-Dec-08 20:25 136 0 gusting 5 -0.0
2019-Dec-08 20:20 182 0 gusting 5 -0.0
2019-Dec-08 20:16 -0.0
2019-Dec-08 20:10 175 2 gusting 6 -0.0
2019-Dec-08 20:05 190 0 gusting 6 -0.0
2019-Dec-08 20:00 254 1 gusting 5 0.6
2019-Dec-08 19:55 0.6
2019-Dec-08 19:50 212 0 gusting 5 0.6
2019-Dec-08 19:45 202 0 gusting 6 0.6
2019-Dec-08 19:40 203 1 gusting 6 0.6
2019-Dec-08 19:35 170 1 gusting 6 0.6
2019-Dec-08 19:31 185 1 gusting 5 0.6
2019-Dec-08 19:25 191 0 gusting 6 0.6
2019-Dec-08 19:20 108 2 gusting 6 0.6
2019-Dec-08 19:15 162 0 gusting 6 0.6
2019-Dec-08 19:10 251 0 gusting 6 0.6
2019-Dec-08 19:05 257 0 gusting 6 0.6
2019-Dec-08 19:01 177 1 gusting 6 0.6
2019-Dec-08 18:55 146 1 gusting 6 0.6
2019-Dec-08 18:50 170 0 gusting 5 0.6
2019-Dec-08 18:46 188 1 gusting 5 0.6
2019-Dec-08 18:40 197 1 gusting 4 0.6
2019-Dec-08 18:35 254 0 gusting 6 0.6
2019-Dec-08 18:30 207 1 gusting 6 0.6
2019-Dec-08 18:25 194 0 gusting 4 0.6
2019-Dec-08 18:20 215 0 gusting 6 -0.0
2019-Dec-08 18:16 198 1 gusting 6 -0.0
2019-Dec-08 18:10 269 0 gusting 3 -0.0
2019-Dec-08 18:05 332 0 gusting 6 -0.0
2019-Dec-08 18:00 193 2 gusting 6 -0.0
2019-Dec-08 17:55 173 1 gusting 6 -0.0
2019-Dec-08 17:50 162 1 gusting 5 -0.0
2019-Dec-08 17:46 180 1 gusting 6 -0.6
2019-Dec-08 17:40 225 2 gusting 6 -0.6
2019-Dec-08 17:35 240 0 gusting 5 -0.6
2019-Dec-08 17:31 254 1 gusting 6 -0.6
2019-Dec-08 17:25 191 1 gusting 6 -0.6
2019-Dec-08 17:20 142 1 gusting 5 -0.6
2019-Dec-08 17:15 210 2 gusting 5 -0.6
2019-Dec-08 17:10 254 1 gusting 6 -0.6
2019-Dec-08 17:05 164 2 gusting 6 -1.1
2019-Dec-08 17:00 194 2 gusting 5 -1.1
2019-Dec-08 16:55 200 1 gusting 5 -1.1
2019-Dec-08 16:50 175 1 gusting 5 -1.1
2019-Dec-08 16:46 250 1 gusting 5 -1.1
2019-Dec-08 16:40 196 1 gusting 5 -1.1
2019-Dec-08 16:35 167 1 gusting 5 -1.1
2019-Dec-08 16:31 230 0 gusting 7 -1.1
2019-Dec-08 16:25 194 2 gusting 7 -1.1
2019-Dec-08 16:20 -1.7
2019-Dec-08 16:16 194 1 gusting 4 -1.7
2019-Dec-08 16:10 248 0 gusting 5 -1.7
2019-Dec-08 16:05 244 1 gusting 5 -2.2
2019-Dec-08 16:01 248 0 gusting 6 -2.2
2019-Dec-08 15:55 260 1 gusting 6 -2.2
2019-Dec-08 15:50 240 1 gusting 4 -2.2
2019-Dec-08 15:46 219 2 gusting 4 -2.8
2019-Dec-08 15:40 237 0 gusting 4 -2.8
2019-Dec-08 15:35 228 0 gusting 3 -2.8
2019-Dec-08 15:30 241 1 gusting 3 -2.8
2019-Dec-08 15:25 237 1 gusting 5 -3.3
2019-Dec-08 15:20 215 1 gusting 5 -3.3
2019-Dec-08 15:16 244 0 gusting 3 -3.3
2019-Dec-08 15:10 209 0 gusting 3 -3.9
2019-Dec-08 15:05 236 0 gusting 3 -3.9
2019-Dec-08 15:01 232 1 gusting 3 -3.9
2019-Dec-08 14:55 175 0 gusting 2 -4.4
2019-Dec-08 14:50 173 0 gusting 3 -4.4
2019-Dec-08 14:45 189 0 gusting 3 -4.4
2019-Dec-08 14:40 -5.0
2019-Dec-08 14:35 236 1 gusting 3 -5.0
2019-Dec-08 14:30 228 0 gusting 3 -5.0
2019-Dec-08 14:25 201 -5.6
2019-Dec-08 14:20 192 0 gusting 3 -5.6
2019-Dec-08 14:16 -5.6
2019-Dec-08 14:10 188 0 gusting 3 -5.6
2019-Dec-08 14:05 162 0 gusting 2 -6.1
2019-Dec-08 14:00 194 -6.1
2019-Dec-08 13:55 194 -6.1
2019-Dec-08 13:50 -6.7
2019-Dec-08 13:46 -6.7
2019-Dec-08 13:40 257 0 gusting 1 -7.2
2019-Dec-08 13:35 258 -7.2
2019-Dec-08 13:30 258 -7.8
2019-Dec-08 13:25 257 0 gusting 1 -8.3
2019-Dec-08 13:20 258 -8.9
2019-Dec-08 13:15 -8.9
2019-Dec-08 13:10 -9.4
2019-Dec-08 13:05 258 -10.0
2019-Dec-08 13:01 258 -10.6
2019-Dec-08 12:55 -11.1
2019-Dec-08 12:50 -11.1
2019-Dec-08 12:46 -11.1
2019-Dec-08 12:40 -11.1
2019-Dec-08 12:35 258 -11.1
2019-Dec-08 12:30 258 -11.1
2019-Dec-08 12:25 -11.1
2019-Dec-08 12:20 -11.1
2019-Dec-08 12:16 -11.1
2019-Dec-08 12:10 -11.1
2019-Dec-08 12:05 -11.1
2019-Dec-08 12:01 -11.1
2019-Dec-08 11:55 -11.1
2019-Dec-08 11:50 -11.1
2019-Dec-08 11:45 -11.1
2019-Dec-08 11:40 258 -11.1
2019-Dec-08 11:35 258 -11.1
2019-Dec-08 11:30 258 -11.1
2019-Dec-08 11:25 258 -11.1
2019-Dec-08 11:20 -11.1
2019-Dec-08 11:15 -10.6
2019-Dec-08 11:10 -10.6
2019-Dec-08 11:05 -10.6
2019-Dec-08 11:01 -10.6
2019-Dec-08 10:55 -10.6
2019-Dec-08 10:50 -10.6
2019-Dec-08 10:45 -10.6
2019-Dec-08 10:40 -10.6
2019-Dec-08 10:35 -10.6
2019-Dec-08 10:31 -10.6
2019-Dec-08 10:25 -10.6
2019-Dec-08 10:20 -10.6
2019-Dec-08 10:16 -10.6
2019-Dec-08 10:10 258 -10.6
2019-Dec-08 10:05 -10.6
2019-Dec-08 10:01 -10.6
2019-Dec-08 09:55 -10.0
2019-Dec-08 09:50 258 -10.0
2019-Dec-08 09:47 -10.0
2019-Dec-08 09:40 -10.0
2019-Dec-08 09:35 -10.0
2019-Dec-08 09:31 -10.0
2019-Dec-08 09:25 258 -10.0
2019-Dec-08 09:20 -10.0
2019-Dec-08 09:15 -10.0
2019-Dec-08 09:10 -10.0
2019-Dec-08 09:05 -10.0
2019-Dec-08 09:01 -10.0
2019-Dec-08 08:55 -10.0
2019-Dec-08 08:50 -10.0
2019-Dec-08 08:46 -10.0
2019-Dec-08 08:40 -10.0
2019-Dec-08 08:35 258 -10.0
2019-Dec-08 08:31 258 -10.0
2019-Dec-08 08:25 258 -10.0
2019-Dec-08 08:20 -9.4
2019-Dec-08 08:16 -9.4
2019-Dec-08 08:10 258 -9.4
2019-Dec-08 08:05 -9.4
2019-Dec-08 08:01 -9.4
2019-Dec-08 07:55 -9.4
2019-Dec-08 07:50 -9.4
2019-Dec-08 07:46 -9.4
2019-Dec-08 07:40 -9.4
2019-Dec-08 07:35 -9.4
2019-Dec-08 07:31 -9.4
2019-Dec-08 07:25 -9.4
2019-Dec-08 07:20 -9.4
2019-Dec-08 07:15 -9.4
2019-Dec-08 07:10 -9.4
2019-Dec-08 07:05 -9.4
2019-Dec-08 07:01 -8.9
2019-Dec-08 06:55 -8.9
2019-Dec-08 06:50 -8.9
2019-Dec-08 06:45 258 -8.9
2019-Dec-08 06:40 -8.9
2019-Dec-08 06:35 258 -8.9
2019-Dec-08 06:31 -8.9
2019-Dec-08 06:25 -8.9
2019-Dec-08 06:20 258 -8.9
2019-Dec-08 06:18 -8.9
2019-Dec-08 06:10 258 -8.9
2019-Dec-08 06:05 -8.3
2019-Dec-08 06:01 258 -8.3
2019-Dec-08 05:55 -8.3
2019-Dec-08 05:50 -8.3
2019-Dec-08 05:45 -8.3
2019-Dec-08 05:40 -8.3
2019-Dec-08 05:35 -8.3
2019-Dec-08 05:30 -8.3
2019-Dec-08 05:25 -8.3
2019-Dec-08 05:20 258 -8.3
2019-Dec-08 05:16 -7.8
2019-Dec-08 05:10 -7.8
2019-Dec-08 05:05 -7.8
2019-Dec-08 05:00 -7.8
2019-Dec-08 04:55 258 -7.8
2019-Dec-08 04:50 258 -7.8
2019-Dec-08 04:45 -7.8
2019-Dec-08 04:40 -7.8
2019-Dec-08 04:35 -7.8
2019-Dec-08 04:30 -7.2
2019-Dec-08 04:25 -7.2
2019-Dec-08 04:20 -7.2
2019-Dec-08 04:15 -7.2
2019-Dec-08 04:10 258 -7.2
2019-Dec-08 04:05 -7.2
2019-Dec-08 04:00 -7.2
2019-Dec-08 03:55 -7.2
2019-Dec-08 03:50 -7.2
2019-Dec-08 03:46 -6.7
2019-Dec-08 03:40 -6.7
2019-Dec-08 03:35 -6.7
2019-Dec-08 03:30 -6.7
2019-Dec-08 03:25 -6.7
2019-Dec-08 03:20 -6.7
2019-Dec-08 03:16 258 -6.7
2019-Dec-08 03:10 -6.7
2019-Dec-08 03:05 -6.7
2019-Dec-08 03:01 -6.1
2019-Dec-08 02:55 -6.1
2019-Dec-08 02:50 -6.1
2019-Dec-08 02:46 258 -6.1
2019-Dec-08 02:40 -6.1
2019-Dec-08 02:35 -6.1
2019-Dec-08 02:30 -6.1
2019-Dec-08 02:25 -6.1
2019-Dec-08 02:20 -6.1
2019-Dec-08 02:16 -6.1
2019-Dec-08 02:10 -6.1
2019-Dec-08 02:05 -5.6
2019-Dec-08 02:02 -5.6
2019-Dec-08 01:55 -5.6
2019-Dec-08 01:50 -5.6
2019-Dec-08 01:46 -5.6
2019-Dec-08 01:40 258 -5.6
2019-Dec-08 01:35 -5.6
2019-Dec-08 01:31 -5.0
2019-Dec-08 01:25 -5.0
2019-Dec-08 01:20 258 -5.0
2019-Dec-08 01:16 -5.0
2019-Dec-08 01:10 -5.0
2019-Dec-08 01:05 -4.4
2019-Dec-08 01:01 -4.4
2019-Dec-08 00:55 -4.4
2019-Dec-08 00:50 -4.4
2019-Dec-08 00:45 -4.4
2019-Dec-08 00:40 -4.4
2019-Dec-08 00:35 -4.4
2019-Dec-08 00:30 -3.9
2019-Dec-08 00:25 -3.9
2019-Dec-08 00:20 -3.9
2019-Dec-08 00:15 -3.9
2019-Dec-08 00:10 -3.9
2019-Dec-08 00:05 -3.9
2019-Dec-08 00:00 -3.9
2019-Dec-07 23:55 265 -3.9
2019-Dec-07 23:50 220 -3.9
2019-Dec-07 23:46 -3.3
2019-Dec-07 23:40 -3.3
2019-Dec-07 23:35 -3.3
2019-Dec-07 23:31 -3.3
2019-Dec-07 23:25 042 -3.3
2019-Dec-07 23:20 -3.3
2019-Dec-07 23:15 -2.8
2019-Dec-07 23:10 -2.8
2019-Dec-07 23:05 -2.8
2019-Dec-07 23:00 -2.8
2019-Dec-07 22:55 -2.8
2019-Dec-07 22:50 -2.8
2019-Dec-07 22:45 -2.2
2019-Dec-07 22:40 -2.2
2019-Dec-07 22:35 075 -2.2
2019-Dec-07 22:31 -2.2
2019-Dec-07 22:25 -2.2
2019-Dec-07 22:20 352 0 gusting 2 -2.2
2019-Dec-07 22:16 042 0 gusting 2 -2.2
2019-Dec-07 22:10 029 -2.2
2019-Dec-07 22:05 016 -2.2
2019-Dec-07 22:01 029 -2.2
2019-Dec-07 21:55 -1.7
2019-Dec-07 21:50 -1.7
2019-Dec-07 21:46 029 -1.7
2019-Dec-07 21:40 -1.7
2019-Dec-07 21:35 -1.7
2019-Dec-07 21:30 -1.7
2019-Dec-07 21:25 040 -1.7
2019-Dec-07 21:20 -1.7
2019-Dec-07 21:15 053 0 gusting 3 -1.7
2019-Dec-07 21:10 042 0 gusting 3 -1.7
2019-Dec-07 21:05 036 -1.1
2019-Dec-07 21:01 207 0 gusting 4 -1.1
2019-Dec-07 20:55 -1.1
2019-Dec-07 20:50 -1.1
2019-Dec-07 20:45 350 0 gusting 3 -1.1
2019-Dec-07 20:40 257 -1.1
2019-Dec-07 20:35 -1.1
2019-Dec-07 20:31 348 0 gusting 4 -1.1
2019-Dec-07 20:25 339 1 gusting 6 -1.1
2019-Dec-07 20:20 319 1 gusting 6 -1.1
2019-Dec-07 20:16 017 -1.1
2019-Dec-07 20:10 311 1 gusting 9 -1.1
2019-Dec-07 20:05 -1.1
2019-Dec-07 20:01 349 0 gusting 3 -1.1
2019-Dec-07 19:55 292 0 gusting 3 -1.1
2019-Dec-07 19:50 -1.1
2019-Dec-07 19:45 111 -1.1
2019-Dec-07 19:40 -1.1
2019-Dec-07 19:35 045 -0.6
2019-Dec-07 19:30 045 0 gusting 4 -0.6
2019-Dec-07 19:25 042 1 gusting 5 -0.6
2019-Dec-07 19:20 327 0 gusting 5 -0.6
2019-Dec-07 19:15 286 1 gusting 9 -0.6
2019-Dec-07 19:10 030 3 gusting 9 -0.6
2019-Dec-07 19:05 360 0 gusting 3 -0.6
2019-Dec-07 19:00 016 0 gusting 5 -0.6
2019-Dec-07 18:55 246 1 gusting 6 -0.6
2019-Dec-07 18:50 026 1 gusting 6 -0.6
2019-Dec-07 18:46 073 0 gusting 6 -0.6
2019-Dec-07 18:40 031 2 gusting 6 -0.6
2019-Dec-07 18:35 035 1 gusting 6 -0.6
2019-Dec-07 18:31 292 0 gusting 7 -0.6
2019-Dec-07 18:25 009 2 gusting 7 -1.1
2019-Dec-07 18:20 048 0 gusting 7 -1.1
2019-Dec-07 18:16 313 0 gusting 7 -1.1
2019-Dec-07 18:10 346 0 gusting 4 -1.1
2019-Dec-07 18:05 -1.1
2019-Dec-07 18:01 346 1 gusting 6 -1.1
2019-Dec-07 17:55 083 1 gusting 7 -1.1
2019-Dec-07 17:50 040 1 gusting 7 -1.1
2019-Dec-07 17:46 345 1 gusting 7 -1.1
2019-Dec-07 17:40 -1.1
2019-Dec-07 17:35 048 1 gusting 6 -1.1
2019-Dec-07 17:30 048 0 gusting 6 -1.7
2019-Dec-07 17:25 352 1 gusting 6 -1.7
2019-Dec-07 17:20 040 0 gusting 6 -1.7
2019-Dec-07 17:16 035 1 gusting 6 -1.7
2019-Dec-07 17:10 037 0 gusting 5 -1.7
2019-Dec-07 17:05 304 1 gusting 7 -1.7
2019-Dec-07 17:01 286 1 gusting 7 -1.7
2019-Dec-07 16:55 009 0 gusting 5 -1.7
2019-Dec-07 16:50 273 2 gusting 5 -1.7
2019-Dec-07 16:46 -1.7
2019-Dec-07 16:40 296 1 gusting 12 -2.2
2019-Dec-07 16:35 -2.2
2019-Dec-07 16:30 352 2 gusting 8 -2.2
2019-Dec-07 16:25 290 1 gusting 8 -2.2
2019-Dec-07 16:20 085 1 gusting 8 -2.2
2019-Dec-07 16:16 344 1 gusting 8 -2.2
2019-Dec-07 16:10 019 1 gusting 6 -2.2
2019-Dec-07 16:05 242 1 gusting 6 -2.2
2019-Dec-07 16:00 050 2 gusting 5 -2.2
2019-Dec-07 15:55 054 0 gusting 6 -2.2
2019-Dec-07 15:50 360 0 gusting 6 -2.2
2019-Dec-07 15:46 013 1 gusting 6 -2.8
2019-Dec-07 15:40 343 2 gusting 7 -2.8
2019-Dec-07 15:35 029 2 gusting 7 -2.8
2019-Dec-07 15:30 352 1 gusting 7 -2.8
2019-Dec-07 15:25 360 1 gusting 8 -2.8
2019-Dec-07 15:20 299 2 gusting 8 -2.8
2019-Dec-07 15:15 338 2 gusting 10 -2.8
2019-Dec-07 15:10 033 1 gusting 10 -2.8
2019-Dec-07 15:05 044 2 gusting 6 -2.8
2019-Dec-07 15:00 032 1 gusting 5 -2.8
2019-Dec-07 14:55 352 1 gusting 5 -3.3
2019-Dec-07 14:50 031 1 gusting 4 -2.8
2019-Dec-07 14:46 -3.3
2019-Dec-07 14:40 334 1 gusting 6 -3.3
2019-Dec-07 14:35 043 2 gusting 6 -3.3
2019-Dec-07 14:30 333 1 gusting 8 -3.3
2019-Dec-07 14:25 105 2 gusting 8 -3.3
2019-Dec-07 14:20 352 0 gusting 6 -3.3
2019-Dec-07 14:16 322 -3.3
2019-Dec-07 14:10 064 0 gusting 5 -3.9
2019-Dec-07 14:05 044 0 gusting 6 -3.3
2019-Dec-07 14:01 091 1 gusting 6 -3.9
2019-Dec-07 13:55 035 0 gusting 5 -3.9
2019-Dec-07 13:50 011 0 gusting 6 -3.9
2019-Dec-07 13:46 360 1 gusting 6 -3.9
2019-Dec-07 13:40 316 1 gusting 6 -3.9
2019-Dec-07 13:35 005 1 gusting 4 -3.9
2019-Dec-07 13:30 021 0 gusting 4 -4.4
2019-Dec-07 13:25 -4.4
2019-Dec-07 13:20 340 0 gusting 4 -4.4
2019-Dec-07 13:16 352 1 gusting 4 -5.0
2019-Dec-07 13:10 040 0 gusting 4 -5.6
2019-Dec-07 13:05 -6.1
2019-Dec-07 13:01 -6.1
2019-Dec-07 12:55 045 -6.1
2019-Dec-07 12:50 045 -6.7
2019-Dec-07 12:46 -6.7
2019-Dec-07 12:40 -6.7
2019-Dec-07 12:35 -6.1
2019-Dec-07 12:30 238 -6.1
2019-Dec-07 12:25 -6.1
2019-Dec-07 12:20 -6.1
2019-Dec-07 12:16 321 -6.1
2019-Dec-07 12:10 -6.1
2019-Dec-07 12:05 -6.1
2019-Dec-07 12:00 281 -6.1